Location: Daouli
(14.8671°N, 3.2030°W)
Time: 02:13:31
(UTC+00:00)

CZ-2C R/B - Pass Details

Date: 29 October 2020
Orbit: 703 x 909 km, 98.1° (Epoch: 02 December)

Event Time Altitude Azimuth Distance (km) Brightness Sun altitude
Rises 19:06:33 0° 163° (SSE) 3,512 6.4 -20.1°
Reaches altitude 10° 19:08:58 10° 162° (SSE) 2,581 5.6 -20.7°
Maximum altitude 19:14:45 74° 78° (ENE) 940 3.2 -22.1°
Drops below altitude 10° 19:20:30 10° 353° (N) 2,563 5.7 -23.4°
Sets 19:22:53 0° 352° (N) 3,487 6.4 -24.0°
